Time,TemperatureF,DewpointF,PressureIn,WindDirection,WindDirectionDegrees,WindSpeedMPH,WindSpeedGustMPH,Humidity,HourlyPrecipIn,Conditions,Clouds,dailyrainin,SoftwareType,DateUTC
2013-07-09 00:01:00,74.8,73.6,30.16,WNW,302,0.0,0.0,96,0.00,,,0.00,VWS V14.01,2013-07-09 05:01:00,
2013-07-09 00:06:00,74.8,73.6,30.16,WNW,302,0.0,0.0,96,0.00,,,0.00,VWS V14.01,2013-07-09 05:06:00,
2013-07-09 00:11:00,74.8,73.6,30.14,WNW,302,0.0,0.0,96,0.00,,,0.00,VWS V14.01,2013-07-09 05:11:00,
2013-07-09 00:16:00,74.7,73.4,30.14,WNW,302,0.0,0.0,96,0.00,,,0.00,VWS V14.01,2013-07-09 05:16:00,
2013-07-09 00:21:00,74.7,73.4,30.14,WNW,302,0.0,0.0,96,0.00,,,0.00,VWS V14.01,2013-07-09 05:21:00,
2013-07-09 00:26:00,74.7,73.4,30.14,WNW,302,0.0,0.0,96,0.00,,,0.00,VWS V14.01,2013-07-09 05:26:00,
2013-07-09 00:31:00,74.7,73.4,30.14,WNW,302,0.0,0.0,96,0.00,,,0.00,VWS V14.01,2013-07-09 05:31:00,
2013-07-09 00:36:00,74.7,73.4,30.14,WNW,302,0.0,0.0,96,0.00,,,0.00,VWS V14.01,2013-07-09 05:36:00,
2013-07-09 00:41:00,74.7,73.8,30.14,WNW,302,0.0,0.0,97,0.00,,,0.00,VWS V14.01,2013-07-09 05:41:00,
2013-07-09 00:46:00,74.7,73.8,30.14,WNW,302,0.0,0.0,97,0.00,,,0.00,VWS V14.01,2013-07-09 05:46:00,
2013-07-09 00:51:00,74.7,73.8,30.14,WNW,302,0.0,0.0,97,0.00,,,0.00,VWS V14.01,2013-07-09 05:51:00,
2013-07-09 00:56:00,74.5,73.3,30.14,WNW,302,0.0,0.0,96,0.00,,,0.00,VWS V14.01,2013-07-09 05:56:00,
2013-07-09 01:01:00,74.5,73.6,30.14,WNW,302,0.0,0.0,97,0.00,,,0.00,VWS V14.01,2013-07-09 06:01:00,
2013-07-09 01:06:00,74.5,73.6,30.14,WNW,302,0.0,0.0,97,0.00,,,0.00,VWS V14.01,2013-07-09 06:06:00,
2013-07-09 01:11:00,74.3,73.4,30.14,WNW,302,0.0,0.0,97,0.00,,,0.00,VWS V14.01,2013-07-09 06:11:00,
2013-07-09 01:16:00,74.3,73.4,30.14,WNW,302,0.0,0.0,97,0.00,,,0.00,VWS V14.01,2013-07-09 06:16:00,
2013-07-09 01:21:00,74.3,73.4,30.14,WNW,302,0.0,0.0,97,0.00,,,0.00,VWS V14.01,2013-07-09 06:21:00,
2013-07-09 01:26:00,74.3,73.4,30.14,WNW,302,0.0,0.0,97,0.00,,,0.00,VWS V14.01,2013-07-09 06:26:00,
2013-07-09 01:31:00,74.1,73.2,30.14,WNW,302,0.0,0.0,97,0.00,,,0.00,VWS V14.01,2013-07-09 06:31:00,
2013-07-09 01:36:00,73.9,73.0,30.14,WNW,302,0.0,0.0,97,0.00,,,0.00,VWS V14.01,2013-07-09 06:36:00,
2013-07-09 01:41:00,73.9,73.0,30.14,WNW,302,0.0,0.0,97,0.00,,,0.00,VWS V14.01,2013-07-09 06:41:00,
2013-07-09 01:46:00,73.9,73.0,30.14,WNW,302,0.0,0.0,97,0.00,,,0.00,VWS V14.01,2013-07-09 06:46:00,
2013-07-09 01:51:00,73.9,73.0,30.14,WNW,302,0.0,0.0,97,0.00,,,0.00,VWS V14.01,2013-07-09 06:51:00,
2013-07-09 01:56:00,73.9,73.3,30.14,WNW,302,0.0,0.0,98,0.00,,,0.00,VWS V14.01,2013-07-09 06:56:00,
2013-07-09 02:01:00,73.9,73.3,30.14,WNW,302,0.0,0.0,98,0.00,,,0.00,VWS V14.01,2013-07-09 07:01:00,
2013-07-09 02:06:00,74.1,73.5,30.14,WNW,302,0.0,0.0,98,0.00,,,0.00,VWS V14.01,2013-07-09 07:06:00,
2013-07-09 02:11:00,73.9,73.3,30.14,WNW,302,0.0,0.0,98,0.00,,,0.00,VWS V14.01,2013-07-09 07:11:00,
2013-07-09 02:16:00,73.9,73.3,30.14,WNW,302,0.0,0.0,98,0.00,,,0.00,VWS V14.01,2013-07-09 07:16:00,
2013-07-09 02:21:00,73.9,73.3,30.14,WNW,302,0.0,0.0,98,0.00,,,0.00,VWS V14.01,2013-07-09 07:21:00,
2013-07-09 02:26:00,73.8,73.2,30.14,WNW,302,0.0,0.0,98,0.00,,,0.00,VWS V14.01,2013-07-09 07:26:00,
2013-07-09 02:31:00,73.8,73.2,30.14,WNW,302,0.0,0.0,98,0.00,,,0.00,VWS V14.01,2013-07-09 07:31:00,
2013-07-09 02:36:00,73.8,73.2,30.14,WNW,302,0.0,0.0,98,0.00,,,0.00,VWS V14.01,2013-07-09 07:36:00,
2013-07-09 02:41:00,73.8,73.2,30.14,WNW,302,0.0,0.0,98,0.00,,,0.00,VWS V14.01,2013-07-09 07:41:00,
2013-07-09 02:46:00,73.6,72.7,30.14,WNW,302,0.0,0.0,97,0.00,,,0.00,VWS V14.01,2013-07-09 07:46:00,
2013-07-09 02:52:00,73.6,73.0,30.14,WNW,302,0.0,0.0,98,0.00,,,0.00,VWS V14.01,2013-07-09 07:52:00,
2013-07-09 02:57:00,73.4,72.8,30.11,WNW,302,0.0,0.0,98,0.00,,,0.00,VWS V14.01,2013-07-09 07:57:00,
2013-07-09 03:02:00,73.4,72.5,30.11,WNW,302,0.0,0.0,97,0.00,,,0.00,VWS V14.01,2013-07-09 08:02:00,
2013-07-09 03:07:00,73.4,72.5,30.11,WNW,302,0.0,0.0,97,0.00,,,0.00,VWS V14.01,2013-07-09 08:07:00,
2013-07-09 03:12:00,73.4,72.5,30.14,WNW,302,0.0,0.0,97,0.00,,,0.00,VWS V14.01,2013-07-09 08:12:00,
2013-07-09 03:17:00,73.4,72.5,30.14,WNW,302,0.0,0.0,97,0.00,,,0.00,VWS V14.01,2013-07-09 08:17:00,
2013-07-09 03:22:00,73.4,72.5,30.14,WNW,302,0.0,0.0,97,0.00,,,0.00,VWS V14.01,2013-07-09 08:22:00,
2013-07-09 03:27:00,73.4,72.5,30.14,WNW,302,0.0,0.0,97,0.00,,,0.00,VWS V14.01,2013-07-09 08:27:00,
2013-07-09 03:32:00,73.4,72.5,30.14,WNW,302,0.0,0.0,97,0.00,,,0.00,VWS V14.01,2013-07-09 08:32:00,
2013-07-09 03:37:00,73.2,72.6,30.14,WNW,302,0.0,0.0,98,0.00,,,0.00,VWS V14.01,2013-07-09 08:37:00,
2013-07-09 03:42:00,73.2,72.6,30.14,WNW,302,0.0,0.0,98,0.00,,,0.00,VWS V14.01,2013-07-09 08:42:00,
2013-07-09 03:47:00,73.2,72.6,30.14,WNW,302,0.0,0.0,98,0.00,,,0.00,VWS V14.01,2013-07-09 08:47:00,
2013-07-09 03:52:00,73.0,72.4,30.14,WNW,302,0.0,0.0,98,0.00,,,0.00,VWS V14.01,2013-07-09 08:52:00,
2013-07-09 03:57:00,73.0,72.4,30.14,WNW,302,0.0,0.0,98,0.00,,,0.00,VWS V14.01,2013-07-09 08:57:00,
2013-07-09 04:02:00,73.0,72.4,30.14,WNW,302,0.0,0.0,98,0.00,,,0.00,VWS V14.01,2013-07-09 09:02:00,
2013-07-09 04:07:00,73.0,72.4,30.14,WNW,302,0.0,0.0,98,0.00,,,0.00,VWS V14.01,2013-07-09 09:07:00,
2013-07-09 04:12:00,72.9,72.3,30.14,WNW,302,0.0,0.0,98,0.00,,,0.00,VWS V14.01,2013-07-09 09:12:00,
2013-07-09 04:17:00,72.9,72.3,30.14,WNW,302,0.0,0.0,98,0.00,,,0.00,VWS V14.01,2013-07-09 09:17:00,
2013-07-09 04:22:00,72.9,72.3,30.14,WNW,302,0.0,0.0,98,0.00,,,0.00,VWS V14.01,2013-07-09 09:22:00,
2013-07-09 04:27:00,72.9,72.3,30.14,WNW,302,0.0,0.0,98,0.00,,,0.00,VWS V14.01,2013-07-09 09:27:00,
2013-07-09 04:32:00,72.7,72.1,30.14,WNW,302,0.0,0.0,98,0.00,,,0.00,VWS V14.01,2013-07-09 09:32:00,
2013-07-09 04:37:00,72.7,72.1,30.14,WNW,302,0.0,0.0,98,0.00,,,0.00,VWS V14.01,2013-07-09 09:37:00,
2013-07-09 04:42:00,72.7,72.1,30.14,WNW,302,0.0,0.0,98,0.00,,,0.00,VWS V14.01,2013-07-09 09:42:00,
2013-07-09 04:47:00,72.5,71.9,30.14,WNW,302,0.0,0.0,98,0.00,,,0.00,VWS V14.01,2013-07-09 09:47:00,
2013-07-09 04:52:00,72.5,71.9,30.14,WNW,302,0.0,0.0,98,0.00,,,0.00,VWS V14.01,2013-07-09 09:52:00,
2013-07-09 04:57:00,72.5,71.9,30.14,WNW,302,0.0,0.0,98,0.00,,,0.00,VWS V14.01,2013-07-09 09:57:00,
2013-07-09 05:02:00,72.5,71.9,30.14,WNW,302,0.0,0.0,98,0.00,,,0.00,VWS V14.01,2013-07-09 10:02:00,
2013-07-09 05:07:00,72.5,71.9,30.14,WNW,302,0.0,0.0,98,0.00,,,0.00,VWS V14.01,2013-07-09 10:07:00,
2013-07-09 05:12:00,72.3,71.4,30.14,WNW,302,0.0,0.0,97,0.00,,,0.00,VWS V14.01,2013-07-09 10:12:00,
2013-07-09 05:17:00,72.3,71.4,30.14,WNW,302,0.0,0.0,97,0.00,,,0.00,VWS V14.01,2013-07-09 10:17:00,
2013-07-09 05:22:00,72.3,71.4,30.14,WNW,302,0.0,0.0,97,0.00,,,0.00,VWS V14.01,2013-07-09 10:22:00,
2013-07-09 05:27:00,72.1,71.2,30.14,WNW,302,0.0,0.0,97,0.00,,,0.00,VWS V14.01,2013-07-09 10:27:00,
2013-07-09 05:32:00,72.1,71.2,30.14,WNW,302,0.0,0.0,97,0.00,,,0.00,VWS V14.01,2013-07-09 10:32:00,
2013-07-09 05:37:00,72.1,71.2,30.14,WNW,302,0.0,0.0,97,0.00,,,0.00,VWS V14.01,2013-07-09 10:37:00,
2013-07-09 05:42:00,72.1,71.6,30.14,WNW,302,0.0,0.0,98,0.00,,,0.00,VWS V14.01,2013-07-09 10:42:00,
2013-07-09 05:47:00,72.0,71.1,30.14,WNW,302,0.0,0.0,97,0.00,,,0.00,VWS V14.01,2013-07-09 10:47:00,
2013-07-09 05:52:00,72.0,71.1,30.14,WNW,302,0.0,0.0,97,0.00,,,0.00,VWS V14.01,2013-07-09 10:52:00,
2013-07-09 05:57:00,72.0,71.1,30.14,WNW,302,0.0,0.0,97,0.00,,,0.00,VWS V14.01,2013-07-09 10:57:00,
2013-07-09 06:02:00,72.0,71.1,30.14,WNW,302,0.0,0.0,97,0.00,,,0.00,VWS V14.01,2013-07-09 11:02:00,
2013-07-09 06:07:00,72.0,71.4,30.14,WNW,302,0.0,0.0,98,0.00,,,0.00,VWS V14.01,2013-07-09 11:07:00,
2013-07-09 06:12:00,72.0,71.1,30.14,WNW,302,0.0,0.0,97,0.00,,,0.00,VWS V14.01,2013-07-09 11:12:00,
2013-07-09 06:17:00,72.0,71.4,30.14,WNW,302,0.0,0.0,98,0.00,,,0.00,VWS V14.01,2013-07-09 11:17:00,
2013-07-09 06:22:00,71.8,71.2,30.14,WNW,302,0.0,0.0,98,0.00,,,0.00,VWS V14.01,2013-07-09 11:22:00,
2013-07-09 06:27:00,71.8,71.2,30.14,WNW,302,0.0,0.0,98,0.00,,,0.00,VWS V14.01,2013-07-09 11:27:00,
2013-07-09 06:32:00,72.0,71.4,30.14,WNW,302,0.0,0.0,98,0.00,,,0.00,VWS V14.01,2013-07-09 11:32:00,
2013-07-09 06:37:00,72.0,71.4,30.14,WNW,302,0.0,0.0,98,0.00,,,0.00,VWS V14.01,2013-07-09 11:37:00,
2013-07-09 06:42:00,72.0,71.7,30.16,WNW,302,0.0,0.0,99,0.00,,,0.00,VWS V14.01,2013-07-09 11:42:00,
2013-07-09 06:47:00,72.0,71.7,30.16,WNW,302,0.0,0.0,99,0.00,,,0.00,VWS V14.01,2013-07-09 11:47:00,
2013-07-09 06:52:00,72.1,71.8,30.16,WNW,302,0.0,0.0,99,0.00,,,0.00,VWS V14.01,2013-07-09 11:52:00,
2013-07-09 06:57:00,72.1,71.8,30.16,WNW,302,0.0,0.0,99,0.00,,,0.00,VWS V14.01,2013-07-09 11:57:00,
2013-07-09 07:02:00,72.3,72.3,30.16,WNW,302,0.0,0.0,100,0.00,,,0.00,VWS V14.01,2013-07-09 12:02:00,
2013-07-09 07:07:00,72.5,72.5,30.16,WNW,302,0.0,0.0,100,0.00,,,0.00,VWS V14.01,2013-07-09 12:07:00,
2013-07-09 07:12:00,72.7,72.7,30.16,WNW,302,0.0,0.0,100,0.00,,,0.00,VWS V14.01,2013-07-09 12:12:00,
2013-07-09 07:17:00,72.7,72.7,30.16,WNW,302,0.0,0.0,100,0.00,,,0.00,VWS V14.01,2013-07-09 12:17:00,
2013-07-09 07:22:00,73.0,73.1,30.16,WNW,302,0.0,0.0,100,0.00,,,0.00,VWS V14.01,2013-07-09 12:22:00,
2013-07-09 07:27:00,73.2,73.2,30.16,WNW,302,0.0,0.0,100,0.00,,,0.00,VWS V14.01,2013-07-09 12:27:00,
2013-07-09 07:32:00,73.4,73.4,30.16,WNW,302,0.0,0.0,100,0.00,,,0.00,VWS V14.01,2013-07-09 12:32:00,
2013-07-09 07:37:00,73.8,73.8,30.16,WNW,302,0.0,0.0,100,0.00,,,0.00,VWS V14.01,2013-07-09 12:37:00,
2013-07-09 07:42:00,73.9,73.9,30.16,WNW,302,0.0,0.0,100,0.00,,,0.00,VWS V14.01,2013-07-09 12:42:00,
2013-07-09 07:47:00,74.1,74.1,30.16,SSW,202,0.0,0.0,100,0.00,,,0.00,VWS V14.01,2013-07-09 12:47:00,
2013-07-09 07:52:00,74.3,74.3,30.16,South,176,0.0,0.0,100,0.00,,,0.00,VWS V14.01,2013-07-09 12:52:00,
2013-07-09 07:57:00,74.5,74.5,30.16,South,176,0.0,0.0,100,0.00,,,0.00,VWS V14.01,2013-07-09 12:57:00,
2013-07-09 08:02:00,74.7,74.7,30.16,South,176,0.0,0.0,100,0.00,,,0.00,VWS V14.01,2013-07-09 13:02:00,
2013-07-09 08:07:00,75.0,75.0,30.16,SE,130,0.0,0.0,100,0.00,,,0.00,VWS V14.01,2013-07-09 13:07:00,
2013-07-09 08:12:00,75.4,75.4,30.16,East,93,0.0,0.0,100,0.00,,,0.00,VWS V14.01,2013-07-09 13:12:00,
2013-07-09 08:17:00,75.6,75.6,30.16,ENE,63,0.0,0.0,100,0.00,,,0.00,VWS V14.01,2013-07-09 13:17:00,
2013-07-09 08:22:00,75.6,75.6,30.16,ENE,63,0.0,0.0,100,0.00,,,0.00,VWS V14.01,2013-07-09 13:22:00,
2013-07-09 08:27:00,75.6,75.6,30.16,ENE,63,0.0,0.0,100,0.00,,,0.00,VWS V14.01,2013-07-09 13:27:00,
2013-07-09 08:32:00,75.9,75.9,30.16,ENE,63,0.0,0.0,100,0.00,,,0.00,VWS V14.01,2013-07-09 13:32:00,
2013-07-09 08:37:00,76.1,76.1,30.16,ENE,63,0.0,0.0,100,0.00,,,0.00,VWS V14.01,2013-07-09 13:37:00,
2013-07-09 08:42:00,76.1,76.1,30.19,ENE,63,0.0,0.0,100,0.00,,,0.00,VWS V14.01,2013-07-09 13:42:00,
2013-07-09 08:47:00,76.6,76.7,30.19,ENE,63,0.0,0.0,100,0.00,,,0.00,VWS V14.01,2013-07-09 13:47:00,
2013-07-09 08:52:00,77.0,77.0,30.19,ENE,63,0.0,0.0,100,0.00,,,0.00,VWS V14.01,2013-07-09 13:52:00,
2013-07-09 08:57:00,77.0,77.0,30.19,ENE,63,0.0,0.0,100,0.00,,,0.00,VWS V14.01,2013-07-09 13:57:00,
2013-07-09 09:02:00,77.5,77.6,30.19,ENE,69,0.0,0.0,100,0.00,,,0.00,VWS V14.01,2013-07-09 14:02:00,
2013-07-09 09:07:00,78.1,78.1,30.19,WNW,287,0.0,0.0,100,0.00,,,0.00,VWS V14.01,2013-07-09 14:07:00,
2013-07-09 09:12:00,78.4,78.4,30.19,North,9,0.0,0.0,100,0.00,,,0.00,VWS V14.01,2013-07-09 14:12:00,
2013-07-09 09:17:00,79.0,79.0,30.19,ESE,112,0.0,0.0,100,0.00,,,0.00,VWS V14.01,2013-07-09 14:17:00,
2013-07-09 09:22:00,79.3,79.0,30.19,North,3,0.0,0.0,99,0.00,,,0.00,VWS V14.01,2013-07-09 14:22:00,
2013-07-09 09:27:00,79.5,78.9,30.19,North,2,0.0,0.0,98,0.00,,,0.00,VWS V14.01,2013-07-09 14:27:00,
2013-07-09 09:32:00,79.9,78.3,30.19,NNE,14,0.0,0.0,95,0.00,,,0.00,VWS V14.01,2013-07-09 14:32:00,
2013-07-09 09:37:00,80.4,77.6,30.19,NE,51,0.0,0.0,91,0.00,,,0.00,VWS V14.01,2013-07-09 14:37:00,
2013-07-09 09:42:00,81.0,76.0,30.19,NE,39,0.0,0.0,85,0.00,,,0.00,VWS V14.01,2013-07-09 14:42:00,
2013-07-09 09:47:00,81.5,76.2,30.19,WNW,300,0.0,0.0,84,0.00,,,0.00,VWS V14.01,2013-07-09 14:47:00,
2013-07-09 09:52:00,81.9,75.1,30.19,NNE,33,0.0,0.0,80,0.00,,,0.00,VWS V14.01,2013-07-09 14:52:00,
2013-07-09 09:57:00,82.2,73.5,30.19,NNE,26,0.0,0.0,75,0.00,,,0.00,VWS V14.01,2013-07-09 14:57:00,
2013-07-09 10:02:00,82.6,72.2,30.19,NNE,22,0.0,0.0,71,0.00,,,0.00,VWS V14.01,2013-07-09 15:02:00,
2013-07-09 10:07:00,82.8,71.6,30.19,NW,314,0.0,0.0,69,0.00,,,0.00,VWS V14.01,2013-07-09 15:07:00,
2013-07-09 10:12:00,83.3,72.1,30.19,NNE,15,0.0,0.0,69,0.00,,,0.00,VWS V14.01,2013-07-09 15:12:00,
2013-07-09 10:17:00,83.3,70.8,30.19,SE,144,0.0,0.0,66,0.00,,,0.00,VWS V14.01,2013-07-09 15:17:00,
2013-07-09 10:22:00,83.7,71.1,30.19,ENE,73,0.0,0.0,66,0.00,,,0.00,VWS V14.01,2013-07-09 15:22:00,
2013-07-09 10:27:00,83.3,69.9,30.19,NW,308,0.0,0.0,64,0.00,,,0.00,VWS V14.01,2013-07-09 15:27:00,
2013-07-09 10:32:00,82.9,69.1,30.19,NW,319,0.0,0.0,63,0.00,,,0.00,VWS V14.01,2013-07-09 15:32:00,
2013-07-09 10:37:00,83.3,68.9,30.19,WNW,296,0.0,0.0,62,0.00,,,0.00,VWS V14.01,2013-07-09 15:37:00,
2013-07-09 10:42:00,84.0,69.6,30.19,SSE,163,0.0,0.0,62,0.00,,,0.00,VWS V14.01,2013-07-09 15:42:00,
2013-07-09 10:47:00,84.6,69.6,30.19,North,0,0.0,0.0,61,0.00,,,0.00,VWS V14.01,2013-07-09 15:47:00,
2013-07-09 10:52:00,84.2,68.8,30.19,NNW,328,0.0,0.0,60,0.00,,,0.00,VWS V14.01,2013-07-09 15:52:00,
2013-07-09 10:57:00,84.0,68.7,30.19,NW,305,0.0,0.0,60,0.00,,,0.00,VWS V14.01,2013-07-09 15:57:00,
2013-07-09 11:02:00,84.0,69.1,30.19,NW,306,0.0,0.0,61,0.00,,,0.00,VWS V14.01,2013-07-09 16:02:00,
2013-07-09 11:07:00,84.6,68.7,30.19,NNW,348,0.0,0.0,59,0.00,,,0.00,VWS V14.01,2013-07-09 16:07:00,
2013-07-09 11:12:00,85.1,69.2,30.19,East,101,0.0,0.0,59,0.00,,,0.00,VWS V14.01,2013-07-09 16:12:00,
2013-07-09 11:17:00,85.5,69.5,30.19,SE,144,0.0,0.0,59,0.00,,,0.00,VWS V14.01,2013-07-09 16:17:00,
2013-07-09 11:22:00,85.5,69.0,30.19,SSE,163,0.0,0.0,58,0.00,,,0.00,VWS V14.01,2013-07-09 16:22:00,
2013-07-09 11:27:00,85.6,69.2,30.19,NW,307,0.0,0.0,58,0.00,,,0.00,VWS V14.01,2013-07-09 16:27:00,
2013-07-09 11:32:00,85.6,69.2,30.19,WNW,300,0.0,0.0,58,0.00,,,0.00,VWS V14.01,2013-07-09 16:32:00,
2013-07-09 11:37:00,86.2,69.2,30.19,ESE,118,0.0,0.0,57,0.00,,,0.00,VWS V14.01,2013-07-09 16:37:00,
2013-07-09 11:42:00,86.2,69.2,30.16,SSE,155,0.0,0.0,57,0.00,,,0.00,VWS V14.01,2013-07-09 16:42:00,
2013-07-09 11:47:00,85.5,68.0,30.16,NW,308,0.0,0.0,56,0.00,,,0.00,VWS V14.01,2013-07-09 16:47:00,
2013-07-09 11:52:00,85.5,66.9,30.16,NNW,348,0.0,0.0,54,0.00,,,0.00,VWS V14.01,2013-07-09 16:52:00,
2013-07-09 11:57:00,85.8,67.3,30.16,NW,321,0.0,0.0,54,0.00,,,0.00,VWS V14.01,2013-07-09 16:57:00,
2013-07-09 12:02:00,86.0,66.9,30.16,NW,321,0.0,0.0,53,0.00,,,0.00,VWS V14.01,2013-07-09 17:02:00,
2013-07-09 12:07:00,86.0,66.9,30.16,SSE,165,0.0,0.0,53,0.00,,,0.00,VWS V14.01,2013-07-09 17:07:00,
2013-07-09 12:12:00,86.5,69.5,30.16,East,92,0.0,0.0,57,0.00,,,0.00,VWS V14.01,2013-07-09 17:12:00,
2013-07-09 12:17:00,87.1,68.4,30.16,WNW,293,0.0,0.0,54,0.00,,,0.00,VWS V14.01,2013-07-09 17:17:00,
2013-07-09 12:22:00,86.9,66.6,30.16,WNW,300,0.0,2.7,51,0.00,,,0.00,VWS V14.01,2013-07-09 17:22:00,
2013-07-09 12:27:00,86.7,66.4,30.16,WNW,300,0.0,0.0,51,0.00,,,0.00,VWS V14.01,2013-07-09 17:27:00,
2013-07-09 12:32:00,87.1,66.8,30.16,NNW,339,0.0,0.0,51,0.00,,,0.00,VWS V14.01,2013-07-09 17:32:00,
2013-07-09 12:37:00,87.6,67.3,30.16,WNW,285,0.0,0.0,51,0.00,,,0.00,VWS V14.01,2013-07-09 17:37:00,
2013-07-09 12:42:00,87.6,68.4,30.16,NW,315,0.0,0.0,53,0.00,,,0.00,VWS V14.01,2013-07-09 17:42:00,
2013-07-09 12:47:00,87.1,66.8,30.16,North,0,0.0,0.0,51,0.00,,,0.00,VWS V14.01,2013-07-09 17:47:00,
2013-07-09 12:52:00,87.1,66.8,30.16,NNW,348,0.0,0.0,51,0.00,,,0.00,VWS V14.01,2013-07-09 17:52:00,
2013-07-09 12:57:00,87.1,67.3,30.16,NNE,32,0.0,0.0,52,0.00,,,0.00,VWS V14.01,2013-07-09 17:57:00,
2013-07-09 13:02:00,87.3,67.5,30.16,ENE,73,0.0,0.0,52,0.00,,,0.00,VWS V14.01,2013-07-09 18:02:00,
2013-07-09 13:07:00,87.4,68.2,30.16,ENE,73,0.0,0.0,53,0.00,,,0.00,VWS V14.01,2013-07-09 18:07:00,
2013-07-09 13:12:00,87.3,68.1,30.16,SE,140,0.0,0.0,53,0.00,,,0.00,VWS V14.01,2013-07-09 18:12:00,
2013-07-09 13:17:00,87.4,67.7,30.16,SSE,165,0.0,0.0,52,0.00,,,0.00,VWS V14.01,2013-07-09 18:17:00,
2013-07-09 13:22:00,87.3,67.5,30.16,SSE,165,0.0,0.0,52,0.00,,,0.00,VWS V14.01,2013-07-09 18:22:00,
2013-07-09 13:27:00,87.4,67.7,30.16,SSE,165,0.0,0.0,52,0.00,,,0.00,VWS V14.01,2013-07-09 18:27:00,
2013-07-09 13:32:00,87.8,68.0,30.16,South,176,4.9,5.4,52,0.00,,,0.00,VWS V14.01,2013-07-09 18:32:00,
2013-07-09 13:37:00,88.2,68.3,30.16,South,172,5.8,5.8,52,0.00,,,0.00,VWS V14.01,2013-07-09 18:37:00,
2013-07-09 13:42:00,88.3,67.4,30.14,West,265,0.0,0.0,50,0.00,,,0.00,VWS V14.01,2013-07-09 18:42:00,
2013-07-09 13:47:00,87.8,66.3,30.14,West,265,0.0,0.0,49,0.00,,,0.00,VWS V14.01,2013-07-09 18:47:00,
2013-07-09 13:52:00,87.6,66.7,30.14,SSE,157,0.0,0.0,50,0.00,,,0.00,VWS V14.01,2013-07-09 18:52:00,
2013-07-09 13:57:00,87.3,66.9,30.14,SSE,161,0.0,0.0,51,0.00,,,0.00,VWS V14.01,2013-07-09 18:57:00,
2013-07-09 14:02:00,87.1,67.3,30.14,SSE,161,0.0,0.0,52,0.00,,,0.00,VWS V14.01,2013-07-09 19:02:00,
2013-07-09 14:07:00,87.1,67.3,30.14,SSE,161,0.0,0.0,52,0.00,,,0.00,VWS V14.01,2013-07-09 19:07:00,
2013-07-09 14:12:00,86.9,67.7,30.14,SSW,210,0.0,0.0,53,0.00,,,0.00,VWS V14.01,2013-07-09 19:12:00,
2013-07-09 14:17:00,86.7,68.6,30.14,South,175,4.0,4.0,55,0.00,,,0.00,VWS V14.01,2013-07-09 19:17:00,
2013-07-09 14:22:00,86.9,68.8,30.14,SSE,152,0.0,0.0,55,0.00,,,0.00,VWS V14.01,2013-07-09 19:22:00,
2013-07-09 14:27:00,86.9,68.8,30.14,SSW,209,0.0,0.0,55,0.00,,,0.00,VWS V14.01,2013-07-09 19:27:00,
2013-07-09 14:32:00,87.3,70.2,30.14,SW,228,0.0,0.0,57,0.00,,,0.00,VWS V14.01,2013-07-09 19:32:00,
2013-07-09 14:37:00,87.8,70.7,30.14,West,261,0.0,0.0,57,0.00,,,0.00,VWS V14.01,2013-07-09 19:37:00,
2013-07-09 14:42:00,88.0,70.3,30.14,SSW,194,0.0,3.1,56,0.00,,,0.00,VWS V14.01,2013-07-09 19:42:00,
2013-07-09 14:47:00,87.8,68.0,30.14,WNW,295,0.0,0.0,52,0.00,,,0.00,VWS V14.01,2013-07-09 19:47:00,
2013-07-09 14:52:00,87.4,68.2,30.14,West,269,0.0,0.0,53,0.00,,,0.00,VWS V14.01,2013-07-09 19:52:00,
2013-07-09 14:57:00,87.1,67.9,30.14,West,270,0.0,0.0,53,0.00,,,0.00,VWS V14.01,2013-07-09 19:57:00,
2013-07-09 15:02:00,87.3,68.6,30.14,WNW,292,0.0,0.0,54,0.00,,,0.00,VWS V14.01,2013-07-09 20:02:00,
2013-07-09 15:07:00,87.4,69.3,30.14,WNW,286,0.0,0.0,55,0.00,,,0.00,VWS V14.01,2013-07-09 20:07:00,
2013-07-09 15:12:00,87.3,68.1,30.11,WNW,287,0.0,0.0,53,0.00,,,0.00,VWS V14.01,2013-07-09 20:12:00,
2013-07-09 15:17:00,87.3,68.1,30.11,West,264,0.0,0.0,53,0.00,,,0.00,VWS V14.01,2013-07-09 20:17:00,
2013-07-09 15:22:00,87.3,68.1,30.11,South,175,0.0,0.0,53,0.00,,,0.00,VWS V14.01,2013-07-09 20:22:00,
2013-07-09 15:27:00,87.1,67.3,30.11,WNW,298,0.0,0.0,52,0.00,,,0.00,VWS V14.01,2013-07-09 20:27:00,
2013-07-09 15:32:00,87.1,67.9,30.11,SW,232,0.0,0.0,53,0.00,,,0.00,VWS V14.01,2013-07-09 20:32:00,
2013-07-09 15:37:00,87.1,67.9,30.11,NW,310,0.0,0.0,53,0.00,,,0.00,VWS V14.01,2013-07-09 20:37:00,
2013-07-09 15:42:00,87.3,68.1,30.11,NW,321,0.0,0.0,53,0.00,,,0.00,VWS V14.01,2013-07-09 20:42:00,
2013-07-09 15:47:00,87.4,67.7,30.11,WNW,295,0.0,0.0,52,0.00,,,0.00,VWS V14.01,2013-07-09 20:47:00,
2013-07-09 15:52:00,87.4,68.2,30.11,South,174,0.0,0.0,53,0.00,,,0.00,VWS V14.01,2013-07-09 20:52:00,
2013-07-09 15:57:00,87.4,67.1,30.11,WNW,303,3.6,4.5,51,0.00,,,0.00,VWS V14.01,2013-07-09 20:57:00,
2013-07-09 16:02:00,87.3,66.9,30.11,WSW,243,0.0,0.0,51,0.00,,,0.00,VWS V14.01,2013-07-09 21:02:00,
2013-07-09 16:07:00,87.3,68.1,30.11,SSW,210,0.0,0.0,53,0.00,,,0.00,VWS V14.01,2013-07-09 21:07:00,
2013-07-09 16:12:00,87.1,67.9,30.11,SSE,166,0.0,0.0,53,0.00,,,0.00,VWS V14.01,2013-07-09 21:12:00,
2013-07-09 16:17:00,87.3,68.6,30.11,WSW,244,0.0,0.0,54,0.00,,,0.00,VWS V14.01,2013-07-09 21:17:00,
2013-07-09 16:22:00,87.3,69.1,30.11,WSW,244,0.0,0.0,55,0.00,,,0.00,VWS V14.01,2013-07-09 21:22:00,
2013-07-09 16:27:00,87.3,68.1,30.11,South,181,0.0,0.0,53,0.00,,,0.00,VWS V14.01,2013-07-09 21:27:00,
2013-07-09 16:32:00,87.3,69.1,30.11,South,182,3.1,3.6,55,0.00,,,0.00,VWS V14.01,2013-07-09 21:32:00,
2013-07-09 16:37:00,87.1,69.5,30.11,SSE,166,4.0,4.9,56,0.00,,,0.00,VWS V14.01,2013-07-09 21:37:00,
2013-07-09 16:42:00,86.9,69.8,30.11,South,169,0.0,0.0,57,0.00,,,0.00,VWS V14.01,2013-07-09 21:42:00,
2013-07-09 16:47:00,86.9,69.8,30.11,SSW,203,0.0,0.0,57,0.00,,,0.00,VWS V14.01,2013-07-09 21:47:00,
2013-07-09 16:52:00,87.1,70.0,30.11,South,183,0.0,0.0,57,0.00,,,0.00,VWS V14.01,2013-07-09 21:52:00,
2013-07-09 16:57:00,87.1,70.0,30.08,SSW,192,3.6,4.0,57,0.00,,,0.00,VWS V14.01,2013-07-09 21:57:00,
2013-07-09 17:02:00,86.9,69.8,30.08,South,182,6.3,6.3,57,0.00,,,0.00,VWS V14.01,2013-07-09 22:02:00,
2013-07-09 17:07:00,87.1,70.0,30.08,SSW,197,2.2,6.3,57,0.00,,,0.00,VWS V14.01,2013-07-09 22:07:00,
2013-07-09 17:12:00,86.9,69.8,30.08,South,182,4.9,4.9,57,0.00,,,0.00,VWS V14.01,2013-07-09 22:12:00,
2013-07-09 17:17:00,87.1,70.0,30.08,SW,221,0.0,0.0,57,0.00,,,0.00,VWS V14.01,2013-07-09 22:17:00,
2013-07-09 17:22:00,87.1,70.0,30.08,SSW,207,0.0,0.0,57,0.00,,,0.00,VWS V14.01,2013-07-09 22:22:00,
2013-07-09 17:27:00,86.9,69.3,30.08,SW,224,0.0,0.0,56,0.00,,,0.00,VWS V14.01,2013-07-09 22:27:00,
2013-07-09 17:32:00,86.7,69.2,30.08,South,176,7.6,7.6,56,0.00,,,0.00,VWS V14.01,2013-07-09 22:32:00,
2013-07-09 17:37:00,86.7,69.2,30.08,South,176,2.2,2.2,56,0.00,,,0.00,VWS V14.01,2013-07-09 22:37:00,
2013-07-09 17:42:00,86.4,68.8,30.08,West,272,0.0,0.0,56,0.00,,,0.00,VWS V14.01,2013-07-09 22:42:00,
2013-07-09 17:47:00,86.4,69.3,30.08,South,191,0.0,0.0,57,0.00,,,0.00,VWS V14.01,2013-07-09 22:47:00,
2013-07-09 17:52:00,86.2,68.7,30.08,SSW,213,0.0,0.0,56,0.00,,,0.00,VWS V14.01,2013-07-09 22:52:00,